Orbital elements of COSMOS 2251 DEB
| Launched | 15 June 1993 |
| Flight ended | – |
| Launch site | Plesetsk Missile and Space Complex, Russia |
| Owner | Commonwealth of Independent States (former USSR) |
| NORAD ID | 36060 |
| Date fetched |
Epoch osculation |
Inc. [°] |
Ecc. | RA asc node [hr] |
Arg Peri. [°] |
Mean anom [°] |
Mean motion [rev/day] |
Abs. mag |
| Date fetched |
Epoch osculation |
Inc. [°] |
Ecc. | RA asc node [hr] |
Arg Peri. [°] |
Mean anom [°] |
Mean motion [rev/day] |
Abs. mag |
| 2026 May 03 17:57 | 2026 Apr 27 07:48:54 | 74.0300 | 0.00144 | 22.8704 | 51.9412 | 308.3037 | 14.42325 | – |
| 2026 May 02 17:57 | 2026 Apr 27 07:48:54 | 74.0300 | 0.00144 | 22.8704 | 51.9412 | 308.3037 | 14.42325 | – |
| 2026 May 01 17:56 | 2026 Apr 27 07:48:54 | 74.0300 | 0.00144 | 22.8704 | 51.9412 | 308.3037 | 14.42325 | – |
| 2026 Apr 30 17:56 | 2026 Apr 27 07:48:54 | 74.0300 | 0.00144 | 22.8704 | 51.9412 | 308.3037 | 14.42325 | – |
| 2026 Apr 29 17:57 | 2026 Apr 19 23:21:40 | 74.0308 | 0.00141 | 23.7798 | 68.0266 | 308.3037 | 14.42325 | – |
| 2026 Apr 28 17:56 | 2026 Apr 19 23:21:40 | 74.0308 | 0.00141 | 23.7798 | 68.0266 | 308.3037 | 14.42325 | – |
| 2026 Apr 27 17:58 | 2026 Apr 19 23:21:40 | 74.0308 | 0.00141 | 23.7798 | 68.0266 | 308.3037 | 14.42325 | – |
| 2026 Apr 26 17:58 | 2026 Apr 19 23:21:40 | 74.0308 | 0.00141 | 23.7798 | 68.0266 | 308.3037 | 14.42325 | – |
| 2026 Apr 25 17:58 | 2026 Apr 19 23:21:40 | 74.0308 | 0.00141 | 23.7798 | 68.0266 | 308.3037 | 14.42325 | – |
| 2026 Apr 24 17:59 | 2026 Apr 19 23:21:40 | 74.0308 | 0.00141 | 23.7798 | 68.0266 | 308.3037 | 14.42325 | – |
| 2026 Apr 23 17:57 | 2026 Apr 19 10:02:37 | 74.0308 | 0.00141 | 23.8484 | 69.2522 | 308.3037 | 14.42325 | – |
| 2026 Apr 22 17:57 | 2026 Apr 19 10:02:37 | 74.0308 | 0.00141 | 23.8484 | 69.2522 | 308.3037 | 14.42325 | – |
| 2026 Apr 21 17:57 | 2026 Apr 19 10:02:37 | 74.0308 | 0.00141 | 23.8484 | 69.2522 | 308.3037 | 14.42325 | – |
| 2026 Apr 20 17:57 | 2026 Apr 19 10:02:37 | 74.0308 | 0.00141 | 23.8484 | 69.2522 | 308.3037 | 14.42325 | – |
| 2026 Apr 19 17:58 | 2026 Apr 19 10:02:37 | 74.0308 | 0.00141 | 23.8484 | 69.2522 | 308.3037 | 14.42325 | – |
| 2026 Apr 18 17:56 | 2026 Apr 13 02:33:31 | 74.0315 | 0.00140 | 0.6291 | 83.3903 | 308.3037 | 14.42325 | – |
| 2026 Apr 16 17:57 | 2026 Apr 13 02:33:31 | 74.0315 | 0.00140 | 0.6291 | 83.3903 | 308.3037 | 14.42325 | – |
| 2026 Apr 14 17:57 | 2026 Apr 13 02:33:31 | 74.0315 | 0.00140 | 0.6291 | 83.3903 | 308.3037 | 14.42325 | – |
| 2026 Apr 13 17:57 | 2026 Apr 13 02:33:31 | 74.0315 | 0.00140 | 0.6291 | 83.3903 | 308.3037 | 14.42325 | – |
| 2026 Apr 12 17:57 | 2026 Apr 08 01:02:13 | 74.0314 | 0.00139 | 1.2553 | 94.8999 | 308.3037 | 14.42325 | – |
| 2026 Apr 11 17:57 | 2026 Apr 08 01:02:13 | 74.0314 | 0.00139 | 1.2553 | 94.8999 | 308.3037 | 14.42325 | – |
| 2026 Apr 10 17:58 | 2026 Apr 08 01:02:13 | 74.0314 | 0.00139 | 1.2553 | 94.8999 | 308.3037 | 14.42325 | – |
| 2026 Apr 09 18:01 | 2026 Apr 08 01:02:13 | 74.0314 | 0.00139 | 1.2553 | 94.8999 | 308.3037 | 14.42325 | – |
| 2026 Apr 08 17:57 | 2026 Apr 08 01:02:13 | 74.0314 | 0.00139 | 1.2553 | 94.8999 | 308.3037 | 14.42325 | – |
| 2026 Apr 07 17:57 | 2026 Apr 02 01:52:24 | 74.0310 | 0.00139 | 1.9931 | 108.3615 | 308.3037 | 14.42325 | – |
| 2026 Apr 06 17:57 | 2026 Apr 02 01:52:24 | 74.0310 | 0.00139 | 1.9931 | 108.3615 | 308.3037 | 14.42325 | – |